Martinsburg, WV

7:51 PM EST on November 20, 2019 (GMT -0500)
Eastern W Va Regional-Shepherd

Weather History for KMRB - September, 2019

Change the Weather History Date:

Thursday, September 5, 2019

  Actual Average Record
Temperature  
Mean Temperature 70 °F 69 °F  
Max Temperature 77 °F 81 °F 97 °F (1937)
Min Temperature 64 °F 58 °F 44 °F (1974)
Degree Days  
Heating Degree Days 0 1  
Month to date heating degree days 0 5  
Since 1 July heating degree days 1 12  
Cooling Degree Days 6 5  
Month to date cooling degree days 20 27  
Year to date cooling degree days 1071 819  
Growing Degree Days 20 (Base 50)    
Moisture  
Dew Point 58 °F    
Average Humidity 67    
Maximum Humidity 84    
Minimum Humidity 54    
Precipitation  
Precipitation 0.00 in 0.12 in 2.63 in (1979)
Month to date precipitation 0.00 0.58  
Year to date precipitation 33.52 26.82  
Sea Level Pressure  
Sea Level Pressure 30.03 in    
Wind  
Wind Speed 5 mph ()    
Max Wind Speed 12 mph    
Max Gust Speed 18 mph    
Visibility 10.0 miles    
Events      
T = Trace of Precipitation, MM = Missing Value Source: Averaged Metar Reports

Daily Weather History Graph

Daily Weather History Graph

Search for Another Location

Airport or City:

Astronomy

Sep. 05, 2019 Rise Set
Actual Time 6:43 AM EDT 7:36 PM EDT
Civil Twilight 6:16 AM EDT 8:04 PM EDT
Nautical Twilight 5:43 AM EDT 8:36 PM EDT
Astronomical Twilight 5:10 AM EDT 9:09 PM EDT
Moon 1:46 PM EDT (9/5) 11:53 PM EDT (9/5)
Length of Visible Light 13h 47m
Length of Day
12h 53m
Waxing Crescent, 45% of the Moon is Illuminated
Sep 5
Waxing Crescent
Sep 5
First Quarter
Sep 14
Full
Sep 21
Last Quarter
Sep 28
New

Hourly Weather History & Observations

Time (EDT) Temp. Dew Point Humidity Pressure Visibility Wind Dir Wind Speed Gust Speed Precip Events Conditions
12:53 AM 72.0 °F 59.0 °F 64% 30.01 in 10.0 mi NNE 5.8 mph - N/A   Clear
1:53 AM 70.0 °F 59.0 °F 68% 30.02 in 10.0 mi NNE 4.6 mph - N/A   Clear
2:53 AM 64.9 °F 59.0 °F 81% 30.03 in 10.0 mi Calm Calm - N/A   Clear
3:53 AM 66.9 °F 59.0 °F 76% 30.03 in 10.0 mi NNW 5.8 mph - N/A   Scattered Clouds
4:53 AM 64.9 °F 57.9 °F 78% 30.04 in 10.0 mi North 4.6 mph - N/A   Clear
5:53 AM 66.0 °F 57.0 °F 73% 30.04 in 10.0 mi North 9.2 mph - N/A   Clear
6:53 AM 64.0 °F 57.0 °F 78% 30.06 in 10.0 mi NNE 5.8 mph - N/A   Clear
7:53 AM 64.9 °F 55.9 °F 73% 30.06 in 10.0 mi North 5.8 mph - N/A   Clear
8:53 AM 66.9 °F 55.9 °F 68% 30.08 in 10.0 mi North 9.2 mph - N/A   Clear
9:53 AM 69.1 °F 55.9 °F 63% 30.09 in 10.0 mi North 8.1 mph - N/A   Clear
10:53 AM 71.1 °F 57.0 °F 61% 30.08 in 10.0 mi NNE 5.8 mph - N/A   Clear
11:53 AM 72.0 °F 57.9 °F 61% 30.08 in 10.0 mi ENE 5.8 mph - N/A   Clear
12:53 PM 75.0 °F 57.9 °F 55% 30.06 in 10.0 mi ENE 8.1 mph - N/A   Partly Cloudy
1:53 PM 75.9 °F 59.0 °F 56% 30.05 in 10.0 mi NE 8.1 mph - N/A   Overcast
2:53 PM 77.0 °F 59.0 °F 54% 30.04 in 10.0 mi NE 6.9 mph - N/A   Overcast
3:53 PM 75.9 °F 57.9 °F 54% 30.01 in 10.0 mi NNE 9.2 mph - N/A   Mostly Cloudy
4:53 PM 77.0 °F 59.0 °F 54% 30.00 in 10.0 mi ENE 4.6 mph - N/A   Mostly Cloudy
5:53 PM 75.0 °F 59.0 °F 57% 30.01 in 10.0 mi ENE 5.8 mph - N/A   Mostly Cloudy
6:53 PM 73.0 °F 60.1 °F 64% 30.01 in 10.0 mi East 8.1 mph - N/A   Overcast
7:53 PM 71.1 °F 60.1 °F 68% 30.00 in 10.0 mi NNE 4.6 mph - N/A   Partly Cloudy
8:53 PM 70.0 °F 60.1 °F 71% 30.01 in 10.0 mi NE 4.6 mph - N/A   Clear
9:53 PM 69.1 °F 60.1 °F 73% 30.02 in 10.0 mi Calm Calm - N/A   Mostly Cloudy
10:53 PM 66.0 °F 59.0 °F 78% 30.00 in 10.0 mi Calm Calm - N/A   Mostly Cloudy
11:53 PM 66.0 °F 57.9 °F 75% 29.98 in 10.0 mi North 8.1 mph - N/A   Clear